Philadelphia, PA

4:28 AM EDT on June 26, 2017 (GMT -0400)
Philadelphia International

Weather History for KPHL - October, 2011

Change the Weather History Date:

Tuesday, October 4, 2011

  Actual Average Record
Temperature  
Mean Temperature 57 °F 62 °F  
Max Temperature 66 °F 71 °F 88 °F (1941)
Min Temperature 48 °F 53 °F 34 °F (1974)
Degree Days  
Heating Degree Days 8 5  
Month to date heating degree days 37 17  
Since 1 July heating degree days 55 55  
Cooling Degree Days 0 2  
Month to date cooling degree days 0 8  
Year to date cooling degree days 1603 1286  
Growing Degree Days 6 (Base 50)    
Moisture  
Dew Point 47 °F    
Average Humidity 69    
Maximum Humidity 86    
Minimum Humidity 52    
Precipitation  
Precipitation 0.01 in 0.10 in 2.73 in (1877)
Month to date precipitation 0.58 0.44  
Year to date precipitation 52.96 32.24  
Snow  
Snow 0.00 in 0.00 in 0.00 in ()
Month to date snowfall 0.0 0.0  
Since 1 July snowfall 0.0 0.0  
Since 1 September snowfall 0.0 0.0  
Snow Depth 0.00 in    
Sea Level Pressure  
Sea Level Pressure 30.07 in    
Wind  
Wind Speed 10 mph (NW)    
Max Wind Speed 18 mph    
Max Gust Speed 26 mph    
Visibility 10 miles    
Events Rain    
T = Trace of Precipitation, MM = Missing Value Source: NWS Daily Summary

Daily Weather History Graph

Daily Weather History Graph

Search for Another Location

Airport or City:

Trip Planner

Search our weather history database for the weather conditions in past years. The results will help you decide how hot, cold, wet, or windy it might be!

Date:

Astronomy

Oct. 04, 2011 Rise Set
Actual Time 6:59 AM EDT 6:38 PM EDT
Civil Twilight 6:32 AM EDT 7:05 PM EDT
Nautical Twilight 6:01 AM EDT 7:37 PM EDT
Astronomical Twilight 5:30 AM EDT 8:08 PM EDT
Moon 2:38 PM EDT (10/4) No Moon Set
Length of Visible Light 12h 33m
Length of Day
11h 39m
First Quarter, 56% of the Moon is Illuminated
Oct 4
First Quarter
Oct 11
Full
Oct 19
Last Quarter
Oct 26
New
Nov 2
First Quarter

Hourly Weather History & Observations

Time (EDT) Temp. Dew Point Humidity Pressure Visibility Wind Dir Wind Speed Gust Speed Precip Events Conditions
12:54 AM 50.0 °F 44.1 °F 80% 30.08 in 10.0 mi NNW 4.6 mph - N/A   Scattered Clouds
1:54 AM 50.0 °F 44.1 °F 80% 30.07 in 10.0 mi WNW 8.1 mph - N/A   Clear
2:54 AM 48.9 °F 44.1 °F 83% 30.06 in 10.0 mi WNW 5.8 mph - N/A   Mostly Cloudy
3:54 AM 48.2 °F 44.6 °F 87% 30.06 in 10.0 mi NW 6.9 mph - N/A   Mostly Cloudy
4:54 AM 48.0 °F 43.0 °F 83% 30.07 in 10.0 mi WSW 3.5 mph - N/A   Mostly Cloudy
5:54 AM 48.9 °F 44.1 °F 83% 30.08 in 10.0 mi WNW 5.8 mph - N/A   Overcast
6:17 AM 48.2 °F 42.8 °F 82% 30.08 in 8.0 mi NW 4.6 mph - 0.00 in Rain Light Rain
6:54 AM 48.0 °F 44.1 °F 86% 30.08 in 7.0 mi NNW 3.5 mph - 0.00 in Rain Light Rain
7:54 AM 48.9 °F 45.0 °F 86% 30.09 in 8.0 mi WNW 8.1 mph - 0.01 in Rain Light Rain
8:23 AM 50.0 °F 44.6 °F 82% 30.09 in 10.0 mi WNW 6.9 mph - 0.00 in   Mostly Cloudy
8:54 AM 51.1 °F 46.0 °F 83% 30.09 in 10.0 mi WNW 8.1 mph - 0.00 in   Mostly Cloudy
9:54 AM 53.1 °F 46.0 °F 77% 30.09 in 10.0 mi NW 10.4 mph - N/A   Mostly Cloudy
10:54 AM 55.9 °F 46.0 °F 69% 30.09 in 10.0 mi NNW 13.8 mph 20.7 mph N/A   Mostly Cloudy
11:54 AM 59.0 °F 46.9 °F 64% 30.08 in 10.0 mi WNW 6.9 mph - N/A   Scattered Clouds
12:54 PM 64.0 °F 46.0 °F 52% 30.07 in 10.0 mi NNW 15.0 mph - N/A   Scattered Clouds
1:54 PM 64.0 °F 46.0 °F 52% 30.05 in 10.0 mi WNW 11.5 mph 23.0 mph N/A   Scattered Clouds
2:54 PM 63.0 °F 48.9 °F 60% 30.05 in 10.0 mi NW 16.1 mph 20.7 mph N/A   Mostly Cloudy
3:54 PM 64.9 °F 48.9 °F 56% 30.05 in 10.0 mi WNW 15.0 mph 25.3 mph N/A   Scattered Clouds
4:54 PM 64.9 °F 48.9 °F 56% 30.05 in 10.0 mi NW 12.7 mph 20.7 mph N/A   Mostly Cloudy
5:54 PM 64.9 °F 48.9 °F 56% 30.06 in 10.0 mi NW 12.7 mph 21.9 mph N/A   Mostly Cloudy
6:54 PM 64.0 °F 51.1 °F 63% 30.07 in 10.0 mi WNW 9.2 mph - N/A   Scattered Clouds
7:54 PM 62.1 °F 51.1 °F 67% 30.08 in 10.0 mi WNW 10.4 mph - N/A   Clear
8:54 PM 61.0 °F 51.1 °F 70% 30.08 in 10.0 mi WNW 10.4 mph - N/A   Clear
9:54 PM 60.1 °F 51.1 °F 72% 30.08 in 10.0 mi NW 10.4 mph - N/A   Clear
10:54 PM 60.1 °F 48.9 °F 67% 30.09 in 10.0 mi NW 11.5 mph - N/A   Clear
11:54 PM 59.0 °F 48.9 °F 69% 30.09 in 10.0 mi NW 9.2 mph - N/A   Partly Cloudy